Regional Weather Roundup
Issued by NWS

Home | Current Version | Previous Version | Text Only | Print | Product List | Glossary On
Versions: 1 2 3 4 5 6 7 8 9 10 11 12 13 14 15 16 17 18 19 20 21 22 23 24 25 26 27 28 29 30 31 32 33 34 35 36 37 38 39 40 41 42 43 44 45 46 47 48 49 50
085
ASUS43 KTOP 191459
RWRKS

WEATHER ROUNDUP FOR KANSAS
NATIONAL WEATHER SERVICE GOODLAND KS
900 AM CST FRI JAN 19 2018

NOTE:  "FAIR" INDICATES FEW OR NO CLOUDS BELOW 12,000 FEET WITH NO
SIGNIFICANT WEATHER AND/OR OBSTRUCTIONS TO VISIBILITY.

KSZ001>006-013>018-027>032-041>047-191600-
NORTHWEST KANSAS

CITY           SKY/WX    TMP DP  RH WIND       PRES   REMARKS
GOODLAND       CLOUDY    40  15  36 SW10      29.76S WCI  33
HAYS           CLOUDY    30  17  58 SW13      29.82S WCI  20
HILL CITY      CLOUDY    30  18  60 CALM      29.78S
RUSSELL        CLOUDY    32  19  58 S15       29.80S WCI  22
$$

KSZ061>065-074>080-084>089-191600-
SOUTHWEST KANSAS

CITY           SKY/WX    TMP DP  RH WIND       PRES   REMARKS
DODGE CITY     CLOUDY    30  12  47 SW17      29.84S WCI  18
GARDEN CITY    CLOUDY    27  10  49 SW7       29.82F
GREAT BEND     CLOUDY    33  18  53 S9        29.84F
LIBERAL        CLOUDY    25  11  55 W9        29.87R
$$

KSZ066>073-081>083-090>101-191600-
SOUTHEAST KANSAS

CITY           SKY/WX    TMP DP  RH WIND       PRES   REMARKS
CHANUTE        CLOUDY    32  19  58 S20G28    30.00F WCI  20
COFFEYVILLE    CLOUDY    33  19  56 S16G23    30.05S WCI  23
HUTCHINSON     CLOUDY    29  19  66 S13       29.89S WCI  19
MEDICINE LODGE   N/A     28  19  69 S6        29.90F
NEWTON         CLOUDY    30  19  63 S17       29.92R WCI  18
PARSONS        CLOUDY    33  20  58 S12G18    30.04S WCI  24
WICHITA INTL   CLOUDY    31  18  58 S16       29.93S WCI  20
WICHITA JABRA  CLOUDY    31  18  58 S14       29.93R WCI  21
WICHITA MCCONL CLOUDY    31  16  54 SW16      29.93R WCI  20
WINFIELD       CLOUDY    33  20  58 S12       29.98F WCI  24
$$

KSZ007>012-019>026-033>040-048>060-102>105-191600-
NORTHEAST KANSAS

CITY           SKY/WX    TMP DP  RH WIND       PRES   REMARKS
CONCORDIA      CLOUDY    33  22  63 S12       29.82S WCI  24
EMPORIA        CLOUDY    30  18  60 S9        29.94R
LAWRENCE       CLOUDY    32  20  61 SE8       29.96S
MANHATTAN      CLOUDY    35  21  56 SW10      29.89S WCI  27
OLATHE IND     CLOUDY    32  19  58 S10       29.97S WCI  24
OLATHE EXE     CLOUDY    30  18  60 S13G21    29.96S WCI  20
SALINA         CLOUDY    32  22  66 S9        29.87F
TOPEKA BILLARD CLOUDY    32  20  61 S9        29.93F
TOPEKA FORBES  CLOUDY    33  20  58 S16       29.91F WCI  23
$$




USA.gov is the U.S. government's official web portal to all federal, state and local government web resources and services.